Location: Newark
(21.1200°N, 73.4000°E)
Time: 17:20:56
(UTC+00:00)

Courier 1B Rocket - Pass Details

Date: 22 January 2020
Orbit: 920 x 1202 km, 28.2° (Epoch: 25 February)

Event Time Altitude Azimuth Distance (km) Brightness Sun altitude
Rises 06:33:41 0° 245° (WSW) 3,952 8.3 47.7°
Reaches altitude 10° 06:36:33 10° 244° (WSW) 2,953 7.8 47.9°
Maximum altitude 06:43:47 80° 158° (SSE) 1,059 6.4 48.3°
Drops below altitude 10° 06:50:29 10° 72° (ENE) 2,745 7.4 48.6°
Sets 06:53:04 0° 71° (ENE) 3,659 7.9 48.7°
